Hourly Data Report for September 29, 2017

All times are specified in Local Standard Time (LST). Add 1 hour to adjust for Daylight Saving Time where and when it is observed.

BAKER LAKE A
NUNAVUT

64°17'56.000" N
96°04'40.000" W
18.60 m
2300503
71926
YBK

Download Data

Hourly Data (September 2017)
Hourly Data Report for September 29, 2017
Temp Definition
°C
Dew Point Temp Definition
°C
Rel Hum Definition
%
Wind Dir Definition
10's deg

Wind Spd Definition
km/h
Visibility Definition
km
Stn Press Definition
kPa
Hmdx Definition


Wind Chill Definition


Weather Definition


TIME
00:00 Legend Double Dagger 0.7 -3.4 74 17 27 24.1 101.79     Cloudy
01:00 Legend Double Dagger 0.9 -3.6 72 16 34 24.1 101.60     LegendNANA
02:00 Legend Double Dagger 1.2 -2.5 76 16 32 24.1 101.44     LegendNANA
03:00 Legend Double Dagger 0.3 -0.5 94 17 32 9.7 101.21     Snow
04:00 Legend Double Dagger 0.5 -0.1 96 16 38 9.7 100.94     Moderate Snow
05:00 Legend Double Dagger 1.1 0.3 95 17 43 9.7 100.69     Snow
06:00 Legend Double Dagger 1.2 0.4 94 17 32 9.7 100.53     Snow
07:00 Legend Double Dagger 1.7 0.5 92 18 35 32.2 100.23     Rain
08:00 Legend Double Dagger 1.9 1.0 94 19 30 32.2 99.98     Drizzle
09:00 Legend Double Dagger 2.7 1.8 94 20 19 32.2 99.79     Cloudy
10:00 Legend Double Dagger 3.9 3.2 95 22 9 32.2 99.67     LegendNANA
11:00 Legend Double Dagger 5.4 4.3 93 24 10 32.2 99.59     LegendNANA
12:00 Legend Double Dagger 7.0 5.6 91 26 18 32.2 99.49     Mostly Cloudy
13:00 Legend Double Dagger 7.8 6.1 89 28 19 32.2 99.47     LegendNANA
14:00 Legend Double Dagger 8.0 6.2 89 28 18 32.2 99.49     LegendNANA
15:00 Legend Double Dagger 8.6 6.5 87 29 23 32.2 99.52     Cloudy
16:00 Legend Double Dagger 8.9 6.4 84 29 33 32.2 99.52     LegendNANA
17:00 Legend Double Dagger 8.4 6.1 86 29 29 32.2 99.56     LegendNANA
18:00 Legend Double Dagger 7.5 5.5 87 29 28 32.2 99.60     Mostly Cloudy
19:00 Legend Double Dagger 6.8 5.0 88 32 31 24.1 99.68     LegendNANA
20:00 Legend Double Dagger 4.9 3.3 89 32 29 24.1 99.74     LegendNANA
21:00 Legend Double Dagger 3.5 1.5 87 32 31 24.1 99.81     Mostly Cloudy
22:00 Legend Double Dagger 1.7 -0.2 87 32 31 24.1 99.94     LegendNANA
23:00 Legend Double Dagger 0.9 -0.7 89 35 28 24.1 100.08     LegendNANA

Notes on Data Quality.

Legend

  • E = Estimated
  • M = Missing
  • NA = Not Available
  • ‡ = Partner data that is not subject to review by the National Climate Archives
Date modified: